Weather History for KPPO - September, 2013

Change the Weather History Date:

Wednesday, September 18, 2013

  Actual Average (KVPZ) Record (KVPZ)
Temperature  
Mean Temperature 66 °F 63 °F  
Max Temperature 79 °F 74 °F 89 °F (2007)
Min Temperature 54 °F 52 °F 43 °F (2009)
Degree Days  
Heating Degree Days 0 4  
Month to date heating degree days 39  
Since 1 July heating degree days 56  
Cooling Degree Days 2 2  
Month to date cooling degree days 53  
Year to date cooling degree days 689  
Growing Degree Days 16 (Base 50)    
Moisture  
Dew Point 56 °F    
Average Humidity 73    
Maximum Humidity 100    
Minimum Humidity 47    
Precipitation  
Precipitation 0.32 in 0.09 in 1.94 in (2013)
Month to date precipitation 1.98  
Year to date precipitation 27.52  
Sea Level Pressure  
Sea Level Pressure 30.08 in    
Wind  
Wind Speed 4 mph (South)    
Max Wind Speed 12 mph    
Max Gust Speed 17 mph    
Visibility 9 miles    
Events Rain , Thunderstorm    
T = Trace of Precipitation, MM = Missing Value Source: NWS Daily Summary

Daily Weather History Graph

Daily Weather History Graph

Search for Another Location

Airport or City:

Trip Planner

Search our weather history database for the weather conditions in past years. The results will help you decide how hot, cold, wet, or windy it might be!

Date:

Astronomy

Sep. 18, 2013 Rise Set
Actual Time 6:30 AM CDT 6:50 PM CDT
Civil Twilight 6:02 AM CDT 7:18 PM CDT
Nautical Twilight 5:30 AM CDT 7:50 PM CDT
Astronomical Twilight 4:56 AM CDT 8:24 PM CDT
Moon 6:13 PM CDT (9/18) 5:32 AM CDT (9/18)
Length of Visible Light 13h 15m
Length of Day
12h 20m
Waxing Gibbous, 99% of the Moon is Illuminated
Sep 18
Waxing Gibbous
Sep 19
Full
Sep 26
Last Quarter
Oct 4
New
Oct 11
First Quarter

Hourly Weather History & Observations

Time (CDT) Temp. Dew Point Humidity Pressure Visibility Wind Dir Wind Speed Gust Speed Precip Events Conditions
12:15 AM 57.4 °F 45.9 °F 65% 30.15 in 10.0 mi SE 3.5 mph - N/A   Clear
12:35 AM 56.7 °F 46.4 °F 69% 30.15 in 10.0 mi Calm Calm - N/A   Clear
12:55 AM 56.7 °F 46.8 °F 69% 30.15 in 10.0 mi SE 3.5 mph - N/A Rain Light Rain
1:15 AM 56.5 °F 46.8 °F 70% 30.15 in 10.0 mi SE 3.5 mph - N/A   Scattered Clouds
1:35 AM 55.8 °F 48.2 °F 76% 30.15 in 10.0 mi Calm Calm - N/A   Scattered Clouds
1:55 AM 55.6 °F 48.4 °F 77% 30.14 in 10.0 mi SE 3.5 mph - N/A   Clear
2:15 AM 54.9 °F 50.2 °F 84% 30.14 in 10.0 mi Calm Calm - N/A   Clear
2:35 AM 54.7 °F 49.8 °F 84% 30.14 in 10.0 mi ESE 3.5 mph - N/A   Clear
2:55 AM 54.5 °F 50.2 °F 85% 30.14 in 10.0 mi ESE 3.5 mph - N/A   Clear
3:15 AM 54.1 °F 50.2 °F 86% 30.14 in 10.0 mi ESE 3.5 mph - N/A   Clear
3:35 AM 54.0 °F 50.4 °F 88% 30.14 in 10.0 mi ESE 3.5 mph - N/A   Scattered Clouds
3:55 AM 54.1 °F 50.2 °F 86% 30.14 in 10.0 mi Calm Calm - N/A   Scattered Clouds
4:15 AM 54.0 °F 50.4 °F 88% 30.14 in 10.0 mi East 3.5 mph - N/A   Mostly Cloudy
4:35 AM 54.0 °F 50.2 °F 87% 30.14 in 10.0 mi Calm Calm - N/A   Scattered Clouds
4:55 AM 54.3 °F 49.6 °F 84% 30.13 in 10.0 mi Calm Calm - N/A   Scattered Clouds
5:15 AM 54.5 °F 50.5 °F 86% 30.14 in 10.0 mi Calm Calm - N/A   Mostly Cloudy
5:35 AM 54.5 °F 50.9 °F 88% 30.14 in 10.0 mi Calm Calm - N/A   Overcast
5:55 AM 55.0 °F 50.9 °F 86% 30.14 in 10.0 mi ESE 3.5 mph - N/A   Overcast
6:15 AM 55.4 °F 50.4 °F 83% 30.14 in 10.0 mi Calm Calm - N/A   Overcast
6:35 AM 55.4 °F 51.1 °F 85% 30.14 in 10.0 mi Calm Calm - N/A   Overcast
6:55 AM 55.8 °F 50.9 °F 84% 30.14 in 10.0 mi Calm Calm - N/A   Overcast
7:15 AM 55.9 °F 51.4 °F 85% 30.14 in 10.0 mi Calm Calm - N/A   Overcast
7:35 AM 56.7 °F 51.3 °F 82% 30.14 in 10.0 mi Calm Calm - N/A   Overcast
7:55 AM 57.2 °F 51.8 °F 82% 30.14 in 10.0 mi South 3.5 mph - N/A   Overcast
8:15 AM 57.6 °F 52.0 °F 82% 30.13 in 10.0 mi Calm Calm - N/A   Overcast
8:35 AM 58.3 °F 52.3 °F 81% 30.13 in 10.0 mi SSE 3.5 mph - N/A   Overcast
8:55 AM 59.4 °F 53.4 °F 81% 30.14 in 10.0 mi SSE 3.5 mph - N/A   Overcast
9:15 AM 60.3 °F 52.9 °F 77% 30.14 in 10.0 mi SSE 3.5 mph - N/A   Overcast
9:35 AM 61.7 °F 53.2 °F 74% 30.13 in 10.0 mi Calm Calm - N/A   Overcast
9:55 AM 63.0 °F 53.6 °F 71% 30.13 in 10.0 mi SSE 3.5 mph - N/A   Overcast
10:15 AM 65.1 °F 53.8 °F 67% 30.12 in 10.0 mi SSE 4.6 mph - N/A   Mostly Cloudy
10:35 AM 66.7 °F 54.1 °F 64% 30.12 in 10.0 mi SSE 4.6 mph - N/A   Mostly Cloudy
10:55 AM 69.1 °F 54.1 °F 59% 30.11 in 10.0 mi South 5.8 mph - N/A   Mostly Cloudy
11:15 AM 69.8 °F 54.0 °F 57% 30.11 in 10.0 mi South 6.9 mph - N/A   Scattered Clouds
11:35 AM 72.1 °F 54.5 °F 54% 30.10 in 10.0 mi South 5.8 mph - N/A   Clear
11:55 AM 73.9 °F 54.5 °F 51% 30.10 in 10.0 mi SW 8.1 mph - N/A   Mostly Cloudy
12:15 PM 73.4 °F 55.0 °F 52% 30.10 in 10.0 mi SSW 8.1 mph - N/A   Overcast
12:35 PM 73.9 °F 55.6 °F 53% 30.09 in 10.0 mi East 6.9 mph - N/A   Overcast
12:55 PM 75.0 °F 56.1 °F 52% 30.08 in 10.0 mi South 8.1 mph - N/A   Mostly Cloudy
1:15 PM 74.3 °F 55.9 °F 53% 30.08 in 10.0 mi South 4.6 mph - N/A   Mostly Cloudy
1:35 PM 77.2 °F 56.8 °F 49% 30.07 in 10.0 mi South 8.1 mph - N/A   Overcast
1:55 PM 77.4 °F 56.8 °F 49% 30.06 in 10.0 mi South 9.2 mph - N/A   Mostly Cloudy
2:15 PM 78.8 °F 57.2 °F 47% 30.05 in 10.0 mi SSW 9.2 mph - N/A   Scattered Clouds
2:35 PM 79.2 °F 57.7 °F 48% 30.04 in 10.0 mi South 10.4 mph - N/A   Clear
2:55 PM 79.2 °F 57.9 °F 48% 30.03 in 10.0 mi South 6.9 mph - N/A   Scattered Clouds
3:15 PM 79.3 °F 58.1 °F 48% 30.02 in 10.0 mi South 9.2 mph - N/A   Clear
3:35 PM 78.8 °F 58.1 °F 49% 30.01 in 10.0 mi South 8.1 mph - N/A   Scattered Clouds
3:55 PM 79.2 °F 58.3 °F 49% 30.01 in 10.0 mi South 6.9 mph - N/A   Mostly Cloudy
4:15 PM 79.2 °F 57.9 °F 48% 30.02 in 10.0 mi South 6.9 mph - N/A   Scattered Clouds
4:35 PM 77.0 °F 58.5 °F 53% 30.02 in 10.0 mi South 4.6 mph - N/A   Mostly Cloudy
4:55 PM 76.6 °F 59.0 °F 54% 30.01 in 10.0 mi SSE 4.6 mph - N/A   Scattered Clouds
5:15 PM 76.3 °F 59.5 °F 56% 30.01 in 10.0 mi SSE 3.5 mph - N/A   Clear
5:35 PM 75.7 °F 59.9 °F 58% 30.01 in 10.0 mi SE 3.5 mph - N/A   Clear
5:55 PM 75.0 °F 60.3 °F 60% 30.01 in 10.0 mi South 4.6 mph - N/A   Clear
6:15 PM 74.5 °F 60.3 °F 61% 29.99 in 10.0 mi SSE 6.9 mph - N/A   Mostly Cloudy
6:35 PM 73.8 °F 60.4 °F 63% 29.98 in 10.0 mi South 5.8 mph - N/A Rain , Thunderstorm Light Thunderstorms and Rain
6:55 PM 73.4 °F 60.8 °F 65% 29.98 in 10.0 mi South 6.9 mph - N/A Rain Light Rain
7:15 PM 71.6 °F 61.9 °F 71% 29.98 in 10.0 mi South 5.8 mph - N/A Rain Light Rain
7:35 PM 69.8 °F 63.0 °F 79% 29.98 in 10.0 mi South 5.8 mph - N/A Rain Light Rain
7:55 PM 69.8 °F 63.0 °F 79% 29.99 in 10.0 mi South 3.5 mph - N/A Rain Light Rain
8:15 PM 69.8 °F 63.3 °F 80% 30.00 in 10.0 mi SSW 4.6 mph - 0.01 in Rain Light Rain
8:35 PM 69.4 °F 64.2 °F 83% 30.01 in 10.0 mi SSW 4.6 mph - 0.01 in Rain , Thunderstorm Rain
8:55 PM 68.5 °F 65.7 °F 90% 30.00 in 7.0 mi South 5.8 mph - 0.04 in Rain , Thunderstorm Thunderstorms and Rain
9:15 PM 68.2 °F 66.0 °F 93% 30.02 in 5.0 mi SW 9.2 mph - 0.03 in Rain , Thunderstorm Thunderstorms and Rain
9:35 PM 68.2 °F 66.6 °F 95% 30.03 in 5.0 mi SSW 9.2 mph - 0.10 in Rain , Thunderstorm Heavy Thunderstorms and Rain
9:55 PM 67.6 °F 67.3 °F 99% 30.02 in 4.0 mi SSW 10.4 mph - 0.16 in Rain , Thunderstorm Thunderstorms and Rain
10:15 PM 67.6 °F 67.6 °F 100% 30.02 in 7.0 mi SSW 11.5 mph - 0.01 in Rain , Thunderstorm Thunderstorms and Rain
10:35 PM 67.1 °F 67.1 °F 100% 30.01 in 5.0 mi South 10.4 mph - 0.04 in Rain , Thunderstorm Rain
10:55 PM 67.1 °F 67.1 °F 100% 30.00 in 7.0 mi South 10.4 mph 17.3 mph 0.08 in Rain , Thunderstorm Rain
11:15 PM 66.4 °F 66.4 °F 100% 30.01 in 7.0 mi South 5.8 mph - 0.02 in Rain , Thunderstorm Rain
11:35 PM 66.2 °F 66.2 °F 100% 30.01 in 5.0 mi South 6.9 mph - 0.04 in Rain Light Rain
11:55 PM 66.2 °F 66.2 °F 100% 30.02 in 7.0 mi WSW 8.1 mph - 0.04 in   Overcast